Temp
11 11 11 11 11 11 11 11 11 10 10 12 11 12 12 12 12 12 12 12 11 11 11 11 11 11 10 11 11 11 12 11 11 11 11 11 11 11
11 11 11 11 11 12 11 12 11 11 10 11 11 12 12 12 12 12 12 11 11 11 11 11 10 10 10 10 10 11 11 11 11 11 11 11 11 11
11 11 11 11 11 11 11 11 11 11 10 11 11 11 11 11 12 12 11 11 12 11 11 10 10 10 10 10 10 10 10 11 11 11 11 11 11 11
10 11 11 11 11 11 11 11 10 11 11 11 11 11 11 11 11 11 11 12 12 12 11 10 10 10 10 10 10 10 10 10 11 11 11 11 11 11
10 10 10 10 11 11 11 11 11 11 11 11 11 11 11 11 10 11 11 11 12 12 12 11 10 10 10 10 10 10 10 10 10 11 11 11 11 11
8 9 10 10 10 10 11 11 11 10 10 10 10 10 10 11 10 11 11 11 11 12 12 12 11 11 11 10 10 10 9 9 10 11 11 11 12 12
7 8 8 9 10 10 10 10 10 11 10 10 10 10 10 10 10 10 10 11 11 11 12 12 12 12 11 11 11 10 11 11 12 12 12 12 12 12
6 6 7 9 9 10 10 10 10 10 10 10 10 10 10 10 10 10 10 10 10 10 11 11 11 11 12 12 12 11 12 12 12 12 12 12 12 12
5 5 6 7 8 9 9 10 10 10 10 10 10 10 10 10 10 9 9 9 10 10 10 10 11 11 12 12 12 12 12 12 12 12 12 12 12 12
2 3 4 6 7 8 8 9 9 9 10 9 10 9 10 10 10 9 9 9 9 9 9 10 10 10 11 11 12 12 12 12 12 12 12 12 12 12
0 1 2 4 5 6 7 8 8 8 9 9 9 9 9 9 9 9 9 9 9 9 10 10 10 10 10 10 10 11 11 11 11 11 12 12 12 12
-1 -1 0 1 1 3 5 6 7 7 9 8 9 9 9 9 9 8 9 9 9 9 9 9 9 10 9 10 11 11 11 11 11 11 11 12 12 12
-2 -2 -1 -1 -0 1 2 4 5 5 6 6 7 7 8 8 8 8 8 8 8 8 9 9 9 9 9 9 9 10 9 10 11 11 11 11 11 12
-3 -3 -3 -3 -2 -1 1 0 1 2 4 4 4 5 6 7 7 7 8 7 8 8 8 8 8 8 9 9 9 9 10 11 11 11 11 11 11 11
-4 -4 -3 -3 -2 -1 -1 -0 0 1 1 1 2 1 2 2 4 5 6 7 7 7 7 8 8 8 8 8 8 8 9 10 10 10 10 10 10 10
-4 -4 -3 -3 -3 -3 -2 -2 -2 -2 -2 -1 -2 -2 -1 -1 1 1 3 5 5 6 7 7 8 8 8 8 8 9 9 9 9 9 9 10 10 10
-5 -4 -3 -3 -3 -3 -3 -4 -4 -3 -3 -4 -3 -3 -3 -2 -2 -2 -1 -0 1 2 5 6 6 7 7 7 8 8 9 9 9 9 9 9 10 10
-5 -5 -5 -5 -5 -5 -5 -5 -5 -5 -5 -5 -5 -5 -4 -4 -4 -4 -3 -3 -2 -2 -1 1 3 6 6 6 6 7 7 8 8 8 8 9 9 9
-6 -6 -7 -7 -7 -7 -7 -7 -7 -7 -7 -7 -6 -6 -6 -6 -5 -5 -5 -5 -4 -4 -4 -3 -2 -2 0 1 4 3 5 6 7 7 7 8 8 9
-7 -7 -8 -8 -8 -9 -8 -8 -8 -8 -8 -8 -8 -8 -8 -7 -7 -7 -6 -6 -6 -5 -5 -4 -4 -4 -4 -4 -3 2 1 2 4 5 6 6 7 7
-8 -8 -8 -9 -9 -10 -10 -10 -10 -10 -10 -10 -9 -9 -9 -9 -9 -9 -8 -8 -8 -7 -6 -5 -5 -5 -5 -5 -4 -2 1 0 1 1 3 4 5 7
-8 -8 -9 -9 -10 -10 -11 -11 -11 -11 -11 -11 -11 -11 -11 -11 -11 -11 -10 -10 -9 -9 -9 -7 -6 -6 -5 -5 -5 -5 -3 0 0 0 1 1 2 3
-8 -9 -9 -10 -10 -11 -11 -12 -12 -11 -11 -12 -12 -12 -13 -13 -13 -13 -12 -12 -11 -11 -11 -9 -8 -7 -7 -6 -6 -6 -5 -4 -1 -0 1 2 2 2
Height
1510 1513 1515 1519 1522 1525 1528 1530 1532 1532 1533 1536 1538 1539 1542 1545 1547 1551 1553 1556 1559 1561 1562 1564 1565 1568 1570 1572 1575 1577 1579 1580 1582 1584 1585 1587 1588 1588
1506 1509 1512 1514 1518 1520 1523 1525 1527 1528 1530 1532 1533 1535 1538 1540 1540 1543 1545 1549 1552 1555 1557 1559 1561 1562 1565 1567 1569 1571 1574 1576 1578 1580 1581 1582 1584 1585
1503 1505 1507 1510 1513 1515 1517 1521 1522 1523 1524 1527 1528 1530 1533 1533 1534 1536 1537 1540 1543 1546 1550 1553 1555 1557 1559 1561 1564 1566 1568 1570 1572 1574 1576 1577 1578 1580
1497 1501 1504 1506 1508 1509 1513 1514 1518 1519 1521 1522 1523 1524 1526 1528 1529 1530 1532 1534 1536 1538 1541 1546 1549 1551 1553 1555 1557 1559 1561 1563 1565 1568 1570 1571 1573 1574
1494 1497 1500 1502 1504 1504 1508 1509 1512 1514 1516 1517 1517 1518 1520 1521 1523 1524 1524 1526 1529 1532 1534 1538 1541 1544 1547 1550 1552 1553 1554 1556 1558 1560 1563 1564 1566 1568
1492 1493 1496 1497 1499 1500 1502 1504 1507 1510 1511 1512 1513 1512 1513 1516 1517 1517 1518 1520 1523 1526 1528 1531 1534 1536 1540 1542 1544 1546 1547 1549 1550 1552 1554 1556 1559 1561
1487 1488 1488 1491 1493 1496 1499 1501 1502 1503 1506 1505 1509 1509 1510 1511 1514 1513 1513 1515 1519 1521 1524 1526 1528 1530 1533 1536 1537 1539 1540 1541 1543 1544 1546 1549 1550 1553
1483 1485 1486 1486 1489 1491 1494 1496 1498 1499 1501 1501 1504 1504 1507 1508 1509 1509 1510 1511 1512 1515 1517 1519 1521 1523 1526 1528 1530 1532 1533 1534 1536 1537 1539 1541 1543 1545
1481 1482 1481 1481 1483 1486 1488 1491 1493 1495 1496 1498 1497 1500 1502 1504 1506 1507 1507 1507 1507 1509 1510 1511 1515 1516 1519 1521 1524 1526 1527 1528 1529 1531 1532 1534 1535 1537
1480 1479 1479 1477 1478 1481 1483 1485 1486 1488 1489 1491 1492 1496 1498 1498 1500 1501 1502 1502 1502 1502 1504 1503 1505 1507 1511 1513 1515 1517 1519 1520 1521 1524 1526 1526 1527 1528
1481 1478 1476 1474 1477 1477 1478 1480 1482 1483 1483 1486 1487 1489 1490 1492 1493 1494 1495 1497 1495 1495 1496 1497 1499 1499 1501 1502 1503 1506 1509 1511 1512 1514 1516 1518 1519 1520
1480 1479 1477 1476 1476 1477 1474 1476 1476 1477 1476 1479 1482 1482 1482 1484 1486 1488 1489 1489 1489 1489 1491 1491 1491 1493 1491 1491 1494 1495 1498 1500 1502 1504 1504 1507 1510 1511
1481 1480 1478 1478 1477 1474 1472 1473 1473 1474 1473 1474 1474 1475 1476 1476 1478 1481 1483 1483 1483 1483 1486 1487 1485 1485 1485 1483 1485 1488 1489 1490 1491 1492 1491 1493 1498 1501
1483 1482 1480 1478 1477 1475 1473 1473 1473 1471 1467 1470 1471 1469 1468 1469 1470 1472 1474 1476 1479 1478 1480 1480 1478 1478 1478 1477 1476 1478 1478 1481 1481 1481 1482 1481 1485 1490
1486 1484 1483 1481 1478 1476 1474 1472 1471 1470 1469 1470 1467 1469 1463 1465 1465 1465 1464 1467 1470 1471 1472 1473 1470 1470 1470 1470 1469 1470 1470 1471 1473 1475 1474 1474 1477 1478
1487 1485 1484 1481 1480 1478 1477 1474 1472 1471 1469 1468 1468 1467 1463 1464 1462 1461 1457 1457 1460 1463 1463 1464 1463 1461 1461 1463 1463 1463 1465 1464 1464 1465 1465 1466 1467 1468
1488 1487 1485 1482 1480 1478 1477 1475 1473 1472 1470 1469 1468 1467 1466 1464 1460 1462 1457 1455 1454 1452 1454 1456 1455 1453 1454 1455 1455 1457 1457 1458 1459 1457 1457 1457 1458 1461
1489 1486 1483 1481 1479 1478 1477 1476 1474 1472 1470 1469 1468 1466 1464 1463 1461 1461 1457 1453 1452 1452 1450 1446 1445 1445 1447 1452 1449 1449 1450 1450 1450 1448 1448 1448 1448 1450
1488 1486 1483 1482 1480 1479 1477 1476 1474 1472 1472 1470 1468 1466 1464 1462 1460 1458 1458 1455 1452 1451 1450 1447 1444 1442 1440 1440 1442 1443 1441 1442 1440 1440 1440 1439 1439 1441
1488 1486 1484 1483 1481 1479 1477 1476 1474 1472 1470 1469 1467 1465 1463 1462 1460 1458 1455 1451 1449 1448 1447 1445 1443 1442 1440 1437 1433 1434 1436 1434 1433 1431 1431 1432 1430 1430
1487 1485 1484 1483 1481 1479 1477 1475 1473 1472 1470 1468 1466 1464 1462 1460 1458 1455 1452 1450 1448 1445 1443 1441 1439 1439 1437 1434 1431 1427 1430 1430 1429 1426 1425 1422 1422 1421
1484 1483 1481 1479 1477 1476 1474 1471 1470 1468 1466 1464 1462 1460 1458 1455 1453 1450 1448 1446 1443 1441 1438 1436 1435 1433 1433 1429 1425 1422 1421 1420 1422 1421 1420 1417 1417 1414
1482 1480 1479 1476 1474 1471 1469 1467 1465 1464 1461 1459 1457 1455 1453 1451 1449 1447 1444 1442 1440 1437 1434 1431 1431 1429 1427 1424 1420 1417 1415 1415 1413 1409 1410 1410 1408 1408
Wind_Speed
17 20 32 29 25 25 28 29 31 18 32 34 33 35 28 27 29 30 29 27 24 24 23 22 23 23 23 23 23 23 23 23 22 21 21 19 18 17
15 18 21 24 27 24 24 21 30 32 28 26 25 22 26 27 24 25 30 31 29 29 27 24 23 24 24 23 23 23 24 24 24 24 24 22 20 20
21 21 20 19 22 23 28 25 27 31 34 32 31 29 30 27 22 21 24 26 28 30 30 26 25 24 23 23 24 23 24 25 26 26 26 25 24 22
23 24 22 21 22 22 25 28 25 24 26 27 27 27 26 26 28 29 29 29 25 25 29 30 27 26 25 23 22 23 24 25 27 27 27 28 27 26
16 22 27 23 26 23 25 24 28 26 25 26 28 28 25 22 27 30 31 30 25 21 23 27 29 28 25 25 24 23 23 25 27 28 29 30 30 29
13 15 21 25 23 22 23 21 22 23 25 26 27 26 27 23 23 25 27 30 29 27 23 21 24 30 29 28 28 29 28 27 28 29 31 32 32 32
15 14 16 25 24 23 23 21 22 24 24 31 23 23 24 25 28 29 19 23 23 20 19 20 25 25 27 28 29 31 29 27 28 29 31 32 33 33
9 13 18 19 24 27 28 25 21 24 25 24 26 25 24 22 26 24 24 24 29 27 28 28 24 22 27 27 27 26 22 20 21 24 27 29 32 33
8 11 13 16 22 22 25 27 27 28 23 28 26 29 26 21 17 17 20 22 27 27 30 30 31 31 31 28 28 27 24 21 20 21 22 25 29 32
5 6 10 12 17 20 22 30 28 25 27 28 30 31 30 23 25 24 25 25 25 24 25 32 34 34 33 36 33 34 34 34 33 29 29 25 28 32
5 7 8 9 14 16 17 22 17 16 24 27 27 27 34 28 26 27 30 27 28 31 28 31 33 33 33 35 35 33 34 35 37 37 35 35 32 32
5 7 10 10 11 9 12 16 15 18 22 23 23 21 21 21 25 23 21 26 25 26 30 32 33 32 33 35 34 32 32 32 34 36 36 37 34 32
12 11 13 15 15 13 10 9 10 14 15 18 19 18 20 23 23 23 23 22 19 23 26 23 26 27 32 33 34 35 37 34 32 33 34 39 41 38
14 15 14 14 14 13 12 10 8 10 11 12 14 15 16 19 20 21 23 27 27 23 20 20 25 25 31 33 38 38 40 37 33 29 29 34 39 36
13 13 11 11 11 11 11 10 9 8 8 7 7 8 8 10 14 16 22 29 26 23 28 25 27 26 28 31 30 33 38 39 35 32 30 29 30 36
12 11 10 10 10 10 11 13 14 14 13 12 12 12 11 11 11 12 13 16 21 27 22 26 29 31 31 32 32 30 28 31 35 31 29 30 28 30
12 10 10 12 12 13 13 13 14 13 14 14 14 14 14 15 14 14 13 11 11 13 20 27 26 27 26 31 33 30 29 28 29 30 33 34 33 32
10 12 15 16 18 18 18 17 17 17 17 17 17 17 18 18 17 17 16 15 15 15 15 15 20 28 30 20 19 22 23 26 27 27 32 32 32 31
14 16 17 17 18 18 18 19 20 20 19 19 19 20 19 19 19 19 17 18 16 17 16 16 16 18 19 19 22 16 18 21 23 23 23 26 30 33
13 14 15 16 17 18 19 19 18 19 20 21 21 21 21 21 21 20 20 21 20 19 19 17 16 17 18 21 26 27 23 23 24 26 26 27 28 30
13 15 17 17 18 18 18 19 19 20 21 21 21 22 23 22 22 21 21 21 21 21 22 21 19 17 20 22 22 26 24 20 21 26 28 29 29 30
13 15 17 20 21 21 19 18 19 20 22 22 22 23 24 25 25 24 24 24 23 23 23 23 23 23 22 23 25 26 27 25 23 22 21 23 25 26
13 15 17 19 21 22 21 20 21 22 23 23 24 25 25 25 25 26 26 25 24 23 24 26 24 24 24 25 27 28 27 26 26 28 24 21 25 29
Wind_Direction
228 229 229 243 242 247 254 259 246 228 236 241 247 259 253 266 262 260 260 256 253 253 253 253 251 251 251 250 250 252 253 254 254 257 260 261 263 265
227 230 243 249 249 242 252 258 250 249 245 253 263 266 268 273 261 267 258 258 259 254 253 253 253 251 252 254 252 251 250 253 254 255 257 259 260 262
227 231 245 247 246 258 243 257 247 254 243 259 264 264 267 269 262 271 260 256 260 246 247 250 249 250 250 251 254 254 253 251 252 253 255 257 258 259
232 229 237 245 257 250 247 255 242 254 258 259 264 264 266 269 261 269 272 254 260 253 242 246 247 247 248 247 249 252 254 252 250 251 251 254 256 258
226 230 238 239 242 251 247 251 253 256 256 258 262 266 269 263 260 262 260 256 245 252 241 238 241 243 245 247 251 254 254 253 252 250 249 251 253 256
241 237 239 231 238 245 255 246 251 251 260 256 267 271 269 263 253 267 248 236 244 249 242 241 243 239 236 241 246 250 252 253 253 251 249 248 249 252
246 239 237 242 243 242 245 248 257 262 263 257 252 258 261 264 263 256 253 236 235 247 251 255 240 235 240 242 248 250 253 252 253 252 251 249 249 250
251 242 245 239 241 244 246 244 250 257 245 244 248 260 263 274 266 259 266 264 259 248 255 259 247 248 238 248 251 248 255 253 257 258 257 256 256 254
272 257 248 241 242 242 241 251 248 247 250 254 256 255 262 272 277 268 266 263 264 272 265 262 259 251 249 256 259 256 243 245 263 263 260 262 260 257
308 294 268 261 251 249 249 249 252 248 245 245 250 257 264 268 260 264 275 278 269 265 267 266 266 262 262 264 259 254 252 258 261 264 260 268 268 262
348 328 318 299 278 264 252 248 250 241 243 249 258 266 250 254 259 265 271 272 267 270 267 263 263 270 269 273 269 262 257 255 257 257 259 262 271 261
33 18 23 8 357 320 280 267 261 265 258 251 246 244 249 248 258 259 255 257 255 267 268 269 275 270 275 278 276 270 268 261 263 262 255 254 256 260
53 50 39 27 15 9 349 315 294 277 269 273 262 249 240 236 245 245 242 250 255 260 269 276 279 283 275 279 281 281 280 274 275 274 263 248 244 257
41 39 36 26 19 15 13 13 344 319 302 281 269 258 246 239 232 235 239 241 248 261 265 266 275 271 272 271 273 283 280 275 276 278 273 255 237 250
39 34 30 27 27 22 22 17 11 7 359 338 341 331 314 290 264 253 242 243 248 254 259 261 261 262 268 276 282 289 286 283 279 275 273 253 248 249
38 35 33 33 31 32 30 29 28 26 25 18 10 360 347 334 315 311 284 260 249 243 246 251 254 261 262 263 268 280 284 280 284 274 265 281 264 258
27 29 32 33 32 34 31 26 24 20 16 15 8 1 359 350 350 339 341 331 319 290 252 242 251 257 260 265 270 271 276 280 285 287 284 275 272 265
11 22 26 27 25 22 20 19 15 11 8 2 359 358 357 354 352 346 339 346 338 333 322 299 280 259 254 255 268 271 268 266 271 278 279 277 281 276
25 27 25 21 17 15 12 8 6 5 1 356 353 351 349 348 346 346 343 340 331 331 335 331 328 325 312 298 265 279 270 266 265 267 277 278 282 282
22 21 17 12 6 1 357 354 351 348 346 347 346 345 342 341 338 337 337 338 334 328 323 326 324 324 325 315 306 289 291 290 282 279 277 265 271 272
3 1 358 356 354 351 345 339 338 338 336 334 333 332 332 333 332 331 330 329 328 323 319 319 320 320 315 308 302 300 293 296 290 289 282 279 276 274
341 344 345 344 345 345 342 338 336 336 336 334 333 332 330 327 326 326 326 325 322 321 317 312 311 309 309 310 310 311 306 294 293 288 284 276 278 276
315 323 329 334 336 336 334 332 331 332 331 329 329 329 329 329 328 327 325 322 319 315 313 310 309 308 308 307 307 309 310 315 305 301 287 276 268 268